Location: Dulzura
(32.6442°N, 116.7814°W)
Time: 05:24:48
(UTC+00:00)

Lacrosse 5 - Visible Passes

Search period start: 28 June 2022 00:00
Search period end: 08 July 2022 00:00
Orbit: 714 x 724 km, 57.0° (Epoch: 09 March)

Date Brightness Start Highest point End Pass type
(mag) Time Alt. Az. Time Alt. Az. Time Alt. Az.
28 Jun 3.6 05:47:18 10° N 05:51:15 22° NE 05:52:10 21° NE visible
28 Jun 3.9 07:29:30 10° NW 07:31:21 22° NW 07:31:21 22° NW visible
29 Jun 4.2 04:55:14 10° N 04:57:38 13° NNE 05:00:01 10° ENE visible
29 Jun 2.9 06:36:16 10° NW 06:39:48 44° NNW 06:39:48 44° NNW visible
30 Jun 2.8 05:43:22 10° NNW 05:48:08 38° NE 05:48:18 38° NE visible
30 Jun 4.3 07:26:40 10° WNW 07:27:29 14° WNW 07:27:29 14° WNW visible
01 Jul 3.7 04:50:46 10° N 04:54:42 22° NE 04:56:52 17° ENE visible
01 Jul 3.2 06:32:57 10° NW 06:36:03 35° WNW 06:36:03 35° WNW visible
02 Jul 4.2 03:58:43 10° N 04:01:05 13° NNE 04:03:26 10° ENE visible
02 Jul 1.9 05:39:44 10° NW 05:44:40 72° NNE 05:44:40 72° NNE visible
03 Jul 2.8 04:46:50 10° NNW 04:51:35 38° NE 04:53:21 29° E visible
03 Jul 3.8 06:30:06 10° WNW 06:32:32 22° W 06:32:32 22° W visible
04 Jul 3.6 03:54:15 10° N 03:58:09 21° NE 04:02:02 10° E visible
04 Jul 2.2 05:36:25 10° NW 05:41:16 56° WSW 05:41:16 56° WSW visible
05 Jul 1.9 04:43:11 10° NW 04:48:18 72° NE 04:50:03 41° SE visible
05 Jul 4.4 06:28:25 10° W 06:29:15 12° W 06:29:15 12° W visible
06 Jul 2.8 03:50:18 10° NNW 03:55:02 37° NE 03:58:54 14° ESE visible
06 Jul 3.2 05:33:33 10° WNW 05:37:50 27° WSW 05:38:06 27° SW visible
07 Jul 2.2 04:39:52 10° NW 04:44:52 57° SW 04:47:01 32° S visible
